UAL1152 KLAX-PHNL

Flight info

Callsign UAL1152
Flight time N/A
Altitude 38000
Route SUMMR2 DINTY DUETS 3335N12855W DADIE R576 DIALO/N0475F400 R576 DENNS MAGGI3
Aircraft B772/H-SDE2E3FGHIJ5LORVWXY/LB1D1

Departure

Time 2026-04-26 18:49
Airport Los Angeles International Airport (KLAX)

Arrival

Time N/A
Airport Daniel K. Inouye International Airport (PHNL)
Time Latitude Longitude Altitude Speed Heading
2026-04-26 18:15 33.94105 -118.39898 124 ft 0 kts 306°
2026-04-26 18:35 33.94103 -118.39896 123 ft 2 kts 304°
2026-04-26 18:36 33.94097 -118.39879 123 ft 2 kts 274°
2026-04-26 18:36 33.94099 -118.39861 123 ft 2 kts 251°
2026-04-26 18:36 33.94105 -118.39845 123 ft 2 kts 227°
2026-04-26 18:36 33.94117 -118.39834 123 ft 2 kts 204°
2026-04-26 18:37 33.94132 -118.39829 123 ft 2 kts 180°
2026-04-26 18:37 33.94145 -118.39830 123 ft 0 kts 176°
2026-04-26 18:37 33.94146 -118.39830 123 ft 0 kts 176°
2026-04-26 18:40 33.94144 -118.39830 123 ft 1 kts 176°
2026-04-26 18:41 33.94123 -118.39828 123 ft 4 kts 175°
2026-04-26 18:41 33.94072 -118.39828 123 ft 10 kts 181°
2026-04-26 18:41 33.94006 -118.39840 123 ft 10 kts 217°
2026-04-26 18:41 33.93969 -118.39932 124 ft 14 kts 261°
2026-04-26 18:42 33.93956 -118.40058 126 ft 16 kts 264°
2026-04-26 18:42 33.93940 -118.40208 128 ft 19 kts 263°
2026-04-26 18:42 33.93923 -118.40378 130 ft 21 kts 263°
2026-04-26 18:42 33.93903 -118.40569 132 ft 24 kts 263°
2026-04-26 18:43 33.93882 -118.40782 133 ft 26 kts 264°
2026-04-26 18:43 33.93859 -118.41003 134 ft 26 kts 260°
2026-04-26 18:43 33.93842 -118.41194 133 ft 6 kts 296°
2026-04-26 18:43 33.93895 -118.41190 133 ft 11 kts
2026-04-26 18:44 33.93985 -118.41183 132 ft 13 kts 357°
2026-04-26 18:44 33.94082 -118.41195 132 ft 14 kts 353°
2026-04-26 18:44 33.94184 -118.41210 131 ft 15 kts 351°
2026-04-26 18:44 33.94289 -118.41226 131 ft 16 kts 354°
2026-04-26 18:45 33.94416 -118.41245 130 ft 17 kts 353°
2026-04-26 18:45 33.94522 -118.41260 130 ft 14 kts 353°
2026-04-26 18:45 33.94616 -118.41273 130 ft 12 kts 352°
2026-04-26 18:45 33.94717 -118.41289 130 ft 8 kts 354°
2026-04-26 18:46 33.94761 -118.41281 130 ft 11 kts 26°
2026-04-26 18:46 33.94807 -118.41167 130 ft 18 kts 84°
2026-04-26 18:46 33.94823 -118.41008 131 ft 20 kts 82°
2026-04-26 18:46 33.94840 -118.40836 130 ft 21 kts 81°
2026-04-26 18:47 33.94861 -118.40651 129 ft 23 kts 83°
2026-04-26 18:47 33.94881 -118.40449 128 ft 24 kts 83°
2026-04-26 18:47 33.94902 -118.40237 127 ft 19 kts 83°
2026-04-26 18:47 33.94916 -118.40105 125 ft 17 kts 84°
2026-04-26 18:48 33.94939 -118.39961 124 ft 14 kts 62°
2026-04-26 18:48 33.95026 -118.39941 124 ft 13 kts 313°
2026-04-26 18:48 33.95036 -118.40024 125 ft 0 kts 263°
2026-04-26 18:48 33.95033 -118.40046 125 ft 8 kts 263°
2026-04-26 18:49 33.95013 -118.40251 126 ft 56 kts 263°
2026-04-26 18:49 33.94933 -118.41031 131 ft 128 kts 263°
2026-04-26 18:49 33.94820 -118.42245 516 ft 151 kts 263°
2026-04-26 18:49 33.94698 -118.43642 761 ft 190 kts 264°
2026-04-26 18:50 33.94499 -118.45446 712 ft 251 kts 262°
2026-04-26 18:50 33.94333 -118.47669 896 ft 253 kts 268°
2026-04-26 18:50 33.94316 -118.48811 1437 ft 232 kts 269°